This is the latest recevied weather packets stored in our database for station/object KU9TRY. If no packets are shown the sender has not sent any weather packets the latest 10 day(s).
| Time | Temp. | Humidity | Pressure | Rain* | Wind** | Luminosity | Snow |
|---|---|---|---|---|---|---|---|
| 1777577546 | 17.22° C | 37% | 1016.1 hPa | 0 mm | - | 163 W/m² | - |
| 1777577243 | 16.67° C | 42% | 1016.2 hPa | 0 mm | - | 198 W/m² | - |
| 1777576939 | 16.67° C | 37% | 1016.2 hPa | 0 mm | - | 212 W/m² | - |
| 1777576635 | 17.22° C | 42% | 1016.1 hPa | 0 mm | - | 224 W/m² | - |
| 1777576330 | 17.22° C | 41% | 1016 hPa | 0 mm | - | 239 W/m² | - |
| 1777576026 | 17.22° C | 41% | 1016.2 hPa | 0 mm | - | 248 W/m² | - |
| 1777575723 | 17.22° C | 42% | 1016 hPa | 0 mm | - | 255 W/m² | - |
| 1777575418 | 16.67° C | 40% | 1016.1 hPa | 0 mm | - | 264 W/m² | - |
| 1777575114 | 17.22° C | 39% | 1016.2 hPa | 0 mm | - | 268 W/m² | - |
| 1777574810 | 17.22° C | 40% | 1016.1 hPa | 0 mm | - | 281 W/m² | - |
| 1777574508 | 16.67° C | 43% | 1016.3 hPa | 0 mm | - | 274 W/m² | - |
| 1777574204 | 17.22° C | 40% | 1016.2 hPa | 0 mm | - | 281 W/m² | - |
| 1777573899 | 17.78° C | 40% | 1016.2 hPa | 0 mm | - | 280 W/m² | - |
| 1777573599 | 17.78° C | 40% | 1016.2 hPa | 0 mm | - | 280 W/m² | - |
| 1777573296 | 17.22° C | 39% | 1016.3 hPa | 0 mm | - | 294 W/m² | - |
| 1777572992 | 17.22° C | 45% | 1016.4 hPa | 0 mm | - | 287 W/m² | - |
| 1777572688 | 17.22° C | 41% | 1016.4 hPa | 0 mm | - | 287 W/m² | - |
| 1777572388 | 17.22° C | 41% | 1016.6 hPa | 0 mm | - | 285 W/m² | - |
| 1777572085 | 17.22° C | 42% | 1016.5 hPa | 0 mm | - | 292 W/m² | - |
| 1777571785 | 17.22° C | 39% | 1016.3 hPa | 0 mm | - | 268 W/m² | - |
| 1777571482 | 17.22° C | 44% | 1016.4 hPa | 0 mm | - | 249 W/m² | - |
| 1777571179 | 17.22° C | 39% | 1016.4 hPa | 0 mm | - | 235 W/m² | - |
| 1777570874 | 17.78° C | 40% | 1016.1 hPa | 0 mm | - | 683 W/m² | - |
| 1777570570 | 17.22° C | 43% | 1016.1 hPa | 0 mm | - | 809 W/m² | - |
| 1777570268 | 17.22° C | 41% | 1016.3 hPa | 0 mm | - | 870 W/m² | - |
* Rain latest hour (hover to see other rain measurements)
** Current wind speed in m/s (hover to see current wind gust speed)